Bismarck, ND

4:44 AM CDT on September 30, 2016 (GMT -0500)
Bismarck Municipal

Weather History for KBIS - March, 2013

Change the Weather History Date:

Monday, March 11, 2013

  Actual Average Record
Temperature  
Mean Temperature 28 °F 28 °F  
Max Temperature 39 °F 38 °F 70 °F (2016)
Min Temperature 16 °F 18 °F -29 °F (1948)
Degree Days  
Heating Degree Days 37 37  
Month to date heating degree days 450 436  
Since 1 July heating degree days 6759 6867  
Cooling Degree Days 0 0  
Month to date cooling degree days 0 0  
Year to date cooling degree days 0 0  
Moisture  
Dew Point 19 °F    
Average Humidity 69    
Maximum Humidity 88    
Minimum Humidity 50    
Precipitation  
Precipitation 0.01 in 0.02 in 0.57 in (1988)
Month to date precipitation 0.50 0.27  
Year to date precipitation 1.09 1.21  
Snow  
Snow 0.20 in 0.30 in 7.50 in (1988)
Month to date snowfall 1.8 3.5  
Since 1 July snowfall 30.4 41.0  
Snow Depth T in    
Sea Level Pressure  
Sea Level Pressure 29.97 in    
Wind  
Wind Speed 16 mph (WNW)    
Max Wind Speed 32 mph    
Max Gust Speed 42 mph    
Visibility 9 miles    
Events Snow    
T = Trace of Precipitation, MM = Missing Value Source: NWS Daily Summary

Daily Weather History Graph

Daily Weather History Graph

Search for Another Location

Airport or City:

Trip Planner

Search our weather history database for the weather conditions in past years. The results will help you decide how hot, cold, wet, or windy it might be!

Date:

Astronomy

Mar. 11, 2013 Rise Set
Actual Time 8:03 AM CDT 7:43 PM CDT
Civil Twilight 7:32 AM CDT 8:13 PM CDT
Nautical Twilight 6:57 AM CDT 8:48 PM CDT
Astronomical Twilight 6:22 AM CDT 9:24 PM CDT
Moon 7:36 AM CDT (3/11) 8:01 PM CDT (3/11)
Length of Visible Light 12h 40m
Length of Day
11h 40m
Waning Crescent, 0% of the Moon is Illuminated
Mar 11
Waning Crescent
Mar 11
New
Mar 19
First Quarter
Mar 27
Full
Apr 2
Last Quarter

Hourly Weather History & Observations

Time (CDT) Temp. Windchill Dew Point Humidity Pressure Visibility Wind Dir Wind Speed Gust Speed Precip Events Conditions
12:52 AM 16.0 °F 8.8 °F 12.9 °F 88% 30.13 in 10.0 mi East 4.6 mph - N/A   Clear
1:52 AM 17.1 °F 5.8 °F 12.9 °F 84% 30.09 in 10.0 mi SE 9.2 mph - N/A   Clear
2:52 AM 16.0 °F 7.4 °F 12.9 °F 88% 30.08 in 10.0 mi ESE 5.8 mph - N/A   Clear
3:52 AM 17.1 °F 7.6 °F 12.9 °F 84% 30.04 in 10.0 mi SSE 6.9 mph - N/A   Partly Cloudy
4:52 AM 17.6 °F 9.3 °F 12.2 °F 79% 29.93 in 10.0 mi SSE 5.8 mph - N/A   Clear
5:52 AM 18.0 °F 7.7 °F 14.0 °F 84% 29.97 in 10.0 mi SE 8.1 mph - N/A   Partly Cloudy
6:52 AM 18.0 °F 6.9 °F 14.0 °F 84% 29.94 in 10.0 mi SSE 9.2 mph - N/A   Overcast
7:52 AM 19.9 °F 12.1 °F 15.1 °F 81% 29.94 in 10.0 mi South 5.8 mph - N/A   Overcast
8:52 AM 19.0 °F 9.0 °F 14.0 °F 81% 29.91 in 10.0 mi SSE 8.1 mph - N/A   Clear
9:52 AM 23.0 °F 17.0 °F 15.1 °F 72% 29.91 in 10.0 mi SSW 4.6 mph - N/A   Clear
10:52 AM 28.0 °F 20.0 °F 18.0 °F 66% 29.91 in 10.0 mi WSW 8.1 mph - N/A   Clear
11:52 AM 33.1 °F 23.4 °F 23.0 °F 66% 29.90 in 10.0 mi NW 13.8 mph 27.6 mph N/A   Partly Cloudy
12:52 PM 34.0 °F 21.0 °F 24.1 °F 67% 29.92 in 10.0 mi NW 26.5 mph 38.0 mph N/A   Partly Cloudy
1:52 PM 37.0 °F 25.6 °F 26.1 °F 65% 29.92 in 10.0 mi NW 24.2 mph 33.4 mph N/A   Clear
2:52 PM 37.0 °F 25.6 °F 25.0 °F 62% 29.93 in 10.0 mi NW 24.2 mph 33.4 mph N/A   Partly Cloudy
3:52 PM 37.9 °F 26.1 °F 24.1 °F 57% 29.92 in 10.0 mi NW 27.6 mph 39.1 mph N/A   Clear
4:52 PM 39.0 °F 28.0 °F 24.1 °F 55% 29.93 in 10.0 mi NW 25.3 mph 36.8 mph N/A   Clear
5:52 PM 39.0 °F 27.8 °F 23.0 °F 53% 29.93 in 10.0 mi WNW 26.5 mph 35.7 mph N/A   Partly Cloudy
6:52 PM 36.0 °F 24.7 °F 21.0 °F 55% 29.94 in 10.0 mi NW 21.9 mph 32.2 mph N/A   Clear
7:52 PM 34.0 °F 22.1 °F 21.0 °F 59% 29.97 in 10.0 mi NW 21.9 mph 39.1 mph N/A   Mostly Cloudy
8:52 PM 32.0 °F 20.1 °F 21.0 °F 64% 29.98 in 10.0 mi WNW 19.6 mph 28.8 mph N/A   Mostly Cloudy
9:52 PM 30.0 °F 16.6 °F 21.0 °F 69% 30.00 in 10.0 mi NW 23.0 mph 31.1 mph N/A   Overcast
10:50 PM 28.4 °F 16.2 °F 21.2 °F 74% 29.93 in 9.0 mi NW 17.3 mph 33.4 mph 0.00 in   Overcast
10:52 PM 28.0 °F 15.7 °F 21.0 °F 75% 30.00 in 9.0 mi NW 17.3 mph 33.4 mph 0.00 in   Overcast
11:41 PM 27.0 °F 13.2 °F 21.9 °F 81% 29.95 in 1.8 mi NW 20.7 mph 34.5 mph 0.00 in Snow Light Snow
11:52 PM 27.0 °F 13.2 °F 21.9 °F 81% 30.02 in 2.0 mi NW 20.7 mph 33.4 mph 0.00 in Snow Light Snow